STARLINK-32383

Last updated on Thu Nov 21 2024 00:02:06 GMT+0000 (Coordinated Universal Time)

1 61891U 24204T 24325.58335648 -.01259078 00000+0 -69233-2 0 9993 2 61891 53.1644 174.8421 0000878 100.3107 194.9238 15.81765215 3024
UTC large
Height (km)
Speed (km/s)
/
Latitude / Longitude
Inclination (degrees)
Orbital Period (minutes)
Azimuth
Elevation
Range (km)
Doppler Factor

Next 0 passes for location: London (51.5072 / 0.1276)

Sorry there are no passes over London.